GEFSSGP_prec_meanprecacc_060.txt.gz
Total_Precipitation_Accumulation
0.00 0.00 0.05 0.09 0.09 0.16 0.14 0.03 0.01 0.00 0.00 0.00 0.00 0.00 0.00 0.00 0.00 0.02 0.00 0.00 0.00 0.00 0.00 0.01 0.01 0.00 0.00 0.01 0.01 0.00 0.00 0.00 0.00 0.00 0.00 0.01 0.01 0.01 0.00 0.00 0.00 0.01 0.01 0.01 0.01 0.01 0.01 0.01 0.01
0.00 0.00 0.05 0.09 0.12 0.32 0.17 0.04 0.01 0.00 0.00 0.00 0.00 0.00 0.00 0.00 0.00 0.00 0.00 0.00 0.00 0.00 0.00 0.00 0.00 0.00 0.00 0.01 0.01 0.01 0.01 0.01 0.01 0.01 0.01 0.01 0.01 0.01 0.01 0.01 0.01 0.01 0.01 0.01 0.01 0.01 0.01 0.01 0.00
0.00 0.01 0.04 0.06 0.13 0.32 0.09 0.01 0.00 0.00 0.00 0.00 0.00 0.00 0.00 0.00 0.00 0.00 0.00 0.00 0.00 0.00 0.00 0.00 0.00 0.00 0.00 0.01 0.01 0.01 0.01 0.01 0.01 0.01 0.01 0.01 0.02 0.02 0.02 0.01 0.01 0.01 0.01 0.01 0.01 0.01 0.01 0.00 0.01
0.00 0.00 0.01 0.03 0.12 0.22 0.09 0.03 0.02 0.01 0.00 0.00 0.00 0.00 0.00 0.00 0.00 0.00 0.00 0.00 0.00 0.00 0.00 0.00 0.00 0.00 0.00 0.01 0.01 0.01 0.01 0.01 0.01 0.01 0.01 0.02 0.03 0.03 0.03 0.02 0.01 0.01 0.01 0.01 0.01 0.01 0.01 0.00 0.00
0.00 0.00 0.00 0.01 0.07 0.12 0.09 0.06 0.04 0.02 0.00 0.00 0.00 0.00 0.00 0.00 0.00 0.00 0.00 0.00 0.00 0.00 0.00 0.01 0.01 0.00 0.00 0.01 0.01 0.01 0.01 0.01 0.01 0.01 0.01 0.01 0.02 0.02 0.02 0.01 0.01 0.02 0.01 0.01 0.02 0.02 0.01 0.01 0.01
0.00 0.00 0.00 0.01 0.03 0.05 0.08 0.07 0.06 0.04 0.02 0.01 0.00 0.00 0.00 0.00 0.00 0.00 0.00 0.00 0.00 0.00 0.00 0.01 0.01 0.01 0.01 0.01 0.01 0.01 0.01 0.01 0.01 0.01 0.01 0.01 0.01 0.02 0.02 0.01 0.01 0.02 0.03 0.02 0.02 0.02 0.01 0.01 0.02
0.00 0.00 0.00 0.01 0.02 0.04 0.04 0.05 0.06 0.03 0.01 0.01 0.00 0.00 0.02 0.00 0.00 0.00 0.00 0.00 0.00 0.00 0.00 0.01 0.01 0.01 0.01 0.01 0.01 0.01 0.01 0.02 0.01 0.01 0.01 0.01 0.01 0.02 0.02 0.03 0.03 0.03 0.04 0.05 0.03 0.02 0.02 0.02 0.02
0.00 0.00 0.00 0.00 0.01 0.03 0.02 0.03 0.05 0.04 0.02 0.01 0.00 0.01 0.03 0.02 0.01 0.00 0.00 0.00 0.00 0.00 0.01 0.01 0.02 0.02 0.01 0.01 0.02 0.02 0.03 0.03 0.02 0.02 0.02 0.02 0.01 0.01 0.02 0.03 0.06 0.07 0.09 0.10 0.07 0.04 0.05 0.07 0.07
0.00 0.00 0.00 0.00 0.00 0.01 0.00 0.01 0.02 0.03 0.02 0.01 0.01 0.02 0.03 0.01 0.00 0.00 0.00 0.00 0.00 0.01 0.02 0.02 0.02 0.02 0.02 0.02 0.03 0.04 0.05 0.04 0.04 0.05 0.04 0.03 0.03 0.06 0.15 0.12 0.18 0.18 0.20 0.19 0.18 0.17 0.20 0.22 0.15
0.00 0.00 0.00 0.00 0.00 0.00 0.00 0.00 0.01 0.02 0.04 0.05 0.08 0.10 0.07 0.04 0.01 0.00 0.00 0.00 0.01 0.01 0.02 0.03 0.03 0.04 0.03 0.03 0.04 0.05 0.06 0.13 0.10 0.16 0.23 0.25 0.30 0.24 0.12 0.21 0.40 0.46 0.47 0.44 0.47 0.59 0.57 0.45 0.33
0.00 0.00 0.00 0.00 0.00 0.00 0.00 0.00 0.00 0.01 0.05 0.13 0.24 0.31 0.20 0.10 0.03 0.01 0.00 0.01 0.01 0.02 0.05 0.06 0.05 0.06 0.06 0.05 0.04 0.07 0.13 0.31 0.28 0.26 0.39 0.51 0.45 0.28 0.15 0.19 0.38 0.60 0.61 0.51 0.67 0.92 0.69 0.67 0.76
0.00 0.00 0.00 0.00 0.00 0.00 0.00 0.00 0.00 0.00 0.01 0.09 0.25 0.30 0.20 0.11 0.05 0.02 0.01 0.03 0.04 0.09 0.13 0.15 0.14 0.13 0.11 0.10 0.11 0.12 0.17 0.26 0.28 0.32 0.29 0.49 0.52 0.36 0.31 0.33 0.38 0.55 0.68 0.84 0.91 1.05 1.04 1.03 0.96
0.00 0.00 0.00 0.00 0.00 0.00 0.00 0.00 0.00 0.00 0.00 0.02 0.11 0.16 0.10 0.09 0.08 0.08 0.10 0.14 0.18 0.19 0.26 0.36 0.38 0.35 0.33 0.34 0.33 0.22 0.22 0.22 0.23 0.29 0.32 0.48 0.62 0.56 0.64 0.64 0.58 0.53 0.80 1.06 1.20 1.06 1.24 1.32 1.10
0.00 0.00 0.00 0.00 0.00 0.00 0.00 0.00 0.00 0.00 0.00 0.00 0.03 0.08 0.09 0.08 0.08 0.13 0.23 0.34 0.36 0.36 0.47 0.67 0.74 0.76 0.82 0.85 0.76 0.59 0.51 0.51 0.51 0.54 0.61 0.75 0.87 0.97 1.04 1.00 0.93 0.82 0.92 1.12 1.26 1.24 1.37 1.24 1.17
0.00 0.00 0.00 0.00 0.00 0.00 0.00 0.00 0.00 0.00 0.00 0.00 0.01 0.03 0.08 0.13 0.14 0.20 0.33 0.40 0.44 0.54 0.80 1.16 1.32 1.37 1.45 1.42 1.29 1.09 0.93 0.95 1.02 1.07 1.17 1.21 1.26 1.36 1.35 1.21 1.08 1.12 1.24 1.31 1.28 1.26 1.31 1.09 0.98
0.00 0.00 0.00 0.00 0.00 0.00 0.00 0.01 0.01 0.01 0.02 0.02 0.02 0.03 0.06 0.09 0.12 0.20 0.34 0.47 0.68 0.98 1.33 1.72 1.99 2.13 2.25 2.20 1.95 1.58 1.39 1.35 1.43 1.52 1.49 1.51 1.53 1.54 1.56 1.27 1.06 1.24 1.35 1.33 1.29 1.16 1.19 1.09 1.04
0.00 0.00 0.01 0.02 0.00 0.00 0.00 0.01 0.02 0.01 0.02 0.01 0.02 0.04 0.06 0.09 0.16 0.28 0.47 0.71 0.98 1.36 1.90 2.45 2.87 3.17 3.31 2.97 2.35 1.97 1.88 1.87 1.88 1.85 1.76 1.69 1.62 1.56 1.66 1.40 1.25 1.34 1.30 1.19 1.13 1.25 1.40 1.28 1.23
0.00 0.00 0.01 0.03 0.01 0.01 0.00 0.01 0.01 0.01 0.01 0.01 0.02 0.05 0.09 0.13 0.19 0.36 0.56 0.83 1.15 1.51 2.16 2.89 3.53 3.74 3.59 3.02 2.49 2.35 2.24 2.03 1.86 1.62 1.45 1.35 1.37 1.37 1.46 1.28 1.23 1.35 1.31 1.15 1.19 1.27 1.35 1.17 1.20
0.00 0.00 0.01 0.04 0.02 0.01 0.01 0.01 0.02 0.02 0.03 0.05 0.06 0.07 0.14 0.24 0.38 0.58 0.75 1.03 1.40 1.77 2.34 2.98 3.46 3.52 3.28 2.92 2.53 2.28 1.95 1.71 1.48 1.25 1.09 1.01 1.00 1.05 1.20 1.08 1.16 1.23 1.15 1.05 1.06 1.11 1.12 0.94 1.16
0.00 0.00 0.01 0.03 0.02 0.01 0.01 0.02 0.04 0.03 0.03 0.05 0.06 0.10 0.19 0.35 0.51 0.70 0.97 1.22 1.43 1.81 2.21 2.50 2.40 2.13 1.99 1.94 1.84 1.59 1.56 1.56 1.49 1.40 1.21 1.03 1.03 1.00 0.96 0.95 0.96 1.00 1.03 0.92 0.87 0.96 0.94 0.77 0.98
0.00 0.01 0.02 0.07 0.09 0.03 0.02 0.10 0.12 0.08 0.06 0.06 0.08 0.12 0.21 0.35 0.55 0.79 1.07 1.25 1.29 1.49 1.64 1.57 1.31 1.03 1.00 1.03 0.99 1.12 1.31 1.43 1.47 1.50 1.41 1.25 1.20 1.16 1.11 1.01 0.93 0.88 0.91 0.89 0.85 0.90 0.89 0.77 0.78
0.03 0.02 0.02 0.03 0.03 0.06 0.09 0.22 0.33 0.28 0.18 0.11 0.14 0.21 0.25 0.32 0.44 0.67 0.86 0.89 0.97 1.01 0.89 0.76 0.66 0.56 0.53 0.53 0.57 0.65 0.86 1.15 1.35 1.53 1.58 1.59 1.50 1.35 1.22 1.10 0.92 0.79 0.77 0.80 0.74 0.77 0.83 0.82 0.70
0.01 0.01 0.00 0.01 0.01 0.04 0.10 0.22 0.41 0.50 0.54 0.29 0.24 0.26 0.28 0.34 0.47 0.52 0.51 0.51 0.54 0.53 0.44 0.39 0.40 0.42 0.42 0.44 0.53 0.55 0.53 0.60 0.62 0.71 0.83 0.99 1.13 1.09 0.95 0.88 0.81 0.72 0.66 0.65 0.69 0.78 0.84 0.84 0.73
0.01 0.01 0.02 0.06 0.09 0.17 0.26 0.27 0.43 0.57 0.63 0.38 0.30 0.27 0.25 0.28 0.32 0.34 0.33 0.32 0.31 0.28 0.25 0.31 0.38 0.46 0.48 0.50 0.52 0.51 0.50 0.56 0.57 0.58 0.62 0.61 0.65 0.67 0.65 0.63 0.65 0.64 0.63 0.62 0.62 0.68 0.76 0.82 0.84
0.02 0.02 0.13 0.37 0.52 0.56 0.38 0.31 0.39 0.39 0.45 0.46 0.40 0.32 0.27 0.21 0.17 0.18 0.20 0.21 0.18 0.16 0.14 0.16 0.24 0.32 0.34 0.37 0.42 0.46 0.53 0.55 0.51 0.47 0.44 0.44 0.43 0.46 0.50 0.53 0.57 0.58 0.62 0.68 0.75 0.75 0.75 0.82 0.90
0.03 0.02 0.08 0.19 0.25 0.28 0.22 0.38 0.40 0.39 0.44 0.39 0.30 0.24 0.20 0.12 0.08 0.08 0.08 0.08 0.09 0.09 0.09 0.09 0.10 0.14 0.19 0.25 0.34 0.48 0.66 0.71 0.68 0.65 0.53 0.49 0.47 0.46 0.50 0.56 0.61 0.61 0.63 0.64 0.73 0.77 0.84 0.90 0.93
0.05 0.04 0.04 0.05 0.06 0.12 0.20 0.39 0.39 0.35 0.41 0.34 0.22 0.15 0.11 0.08 0.07 0.04 0.03 0.04 0.04 0.04 0.05 0.06 0.06 0.10 0.17 0.24 0.31 0.37 0.42 0.49 0.50 0.52 0.51 0.48 0.54 0.50 0.55 0.62 0.70 0.73 0.74 0.75 0.78 0.79 0.90 1.07 1.14
0.05 0.04 0.04 0.04 0.07 0.07 0.12 0.37 0.50 0.46 0.46 0.36 0.23 0.13 0.08 0.06 0.04 0.02 0.02 0.02 0.02 0.03 0.05 0.08 0.07 0.14 0.27 0.40 0.46 0.36 0.28 0.27 0.33 0.42 0.48 0.51 0.54 0.55 0.59 0.63 0.66 0.71 0.73 0.75 0.79 0.85 0.95 1.10 1.16
0.07 0.06 0.06 0.06 0.06 0.09 0.11 0.27 0.30 0.29 0.28 0.25 0.18 0.12 0.10 0.07 0.03 0.01 0.01 0.01 0.02 0.03 0.07 0.18 0.24 0.31 0.43 0.58 0.66 0.55 0.38 0.31 0.31 0.34 0.34 0.36 0.44 0.54 0.60 0.57 0.52 0.49 0.54 0.66 0.79 0.87 0.95 1.04 1.07
0.07 0.07 0.07 0.08 0.07 0.07 0.10 0.21 0.14 0.13 0.12 0.10 0.07 0.06 0.04 0.02 0.01 0.01 0.01 0.01 0.01 0.03 0.14 0.38 0.63 0.89 0.95 1.03 1.11 0.96 0.58 0.36 0.29 0.24 0.22 0.29 0.41 0.51 0.56 0.53 0.48 0.47 0.53 0.65 0.78 0.94 1.14 1.27 1.23

GEFSSGP_prec_meanprecacc_066.txt.gz
Total_Precipitation_Accumulation
0.00 0.01 0.06 0.12 0.15 0.23 0.22 0.12 0.10 0.04 0.02 0.02 0.01 0.00 0.00 0.00 0.01 0.03 0.00 0.00 0.00 0.00 0.00 0.01 0.01 0.00 0.00 0.01 0.01 0.00 0.00 0.00 0.00 0.01 0.01 0.01 0.01 0.01 0.00 0.00 0.01 0.01 0.01 0.01 0.01 0.01 0.01 0.01 0.01
0.00 0.01 0.06 0.11 0.18 0.42 0.23 0.08 0.04 0.02 0.01 0.02 0.01 0.00 0.00 0.00 0.00 0.00 0.00 0.00 0.00 0.00 0.00 0.00 0.00 0.00 0.00 0.01 0.01 0.01 0.01 0.01 0.01 0.01 0.01 0.01 0.01 0.01 0.01 0.01 0.01 0.01 0.01 0.01 0.01 0.01 0.01 0.01 0.01
0.00 0.01 0.05 0.08 0.21 0.42 0.12 0.04 0.02 0.02 0.02 0.03 0.03 0.00 0.00 0.00 0.00 0.00 0.00 0.00 0.00 0.00 0.00 0.00 0.00 0.00 0.00 0.01 0.01 0.01 0.01 0.01 0.01 0.01 0.01 0.02 0.02 0.02 0.02 0.02 0.01 0.01 0.01 0.01 0.01 0.01 0.01 0.00 0.01
0.00 0.00 0.02 0.05 0.15 0.25 0.11 0.05 0.04 0.03 0.02 0.01 0.01 0.01 0.00 0.00 0.00 0.00 0.00 0.00 0.00 0.00 0.00 0.00 0.00 0.00 0.00 0.01 0.01 0.01 0.01 0.02 0.02 0.01 0.01 0.02 0.03 0.03 0.03 0.02 0.01 0.01 0.01 0.01 0.01 0.01 0.01 0.00 0.00
0.00 0.00 0.01 0.03 0.08 0.12 0.10 0.08 0.07 0.05 0.02 0.01 0.01 0.01 0.00 0.00 0.00 0.00 0.00 0.00 0.00 0.00 0.00 0.01 0.01 0.00 0.00 0.01 0.01 0.01 0.01 0.02 0.02 0.01 0.02 0.02 0.02 0.02 0.02 0.02 0.02 0.02 0.02 0.01 0.02 0.02 0.01 0.01 0.01
0.00 0.00 0.01 0.01 0.03 0.05 0.08 0.08 0.08 0.05 0.02 0.01 0.02 0.02 0.01 0.00 0.00 0.00 0.00 0.00 0.00 0.00 0.00 0.01 0.01 0.01 0.01 0.01 0.01 0.01 0.01 0.01 0.01 0.01 0.01 0.02 0.02 0.02 0.02 0.02 0.02 0.02 0.03 0.02 0.02 0.02 0.02 0.01 0.02
0.00 0.00 0.00 0.01 0.02 0.04 0.04 0.05 0.06 0.04 0.02 0.02 0.02 0.03 0.04 0.01 0.01 0.01 0.00 0.00 0.00 0.00 0.00 0.01 0.01 0.01 0.01 0.01 0.01 0.01 0.02 0.02 0.02 0.02 0.02 0.02 0.02 0.02 0.02 0.03 0.04 0.04 0.05 0.05 0.03 0.02 0.02 0.02 0.02
0.00 0.00 0.00 0.00 0.01 0.03 0.02 0.03 0.05 0.05 0.02 0.01 0.02 0.05 0.07 0.05 0.01 0.00 0.01 0.01 0.01 0.01 0.01 0.01 0.02 0.02 0.01 0.01 0.02 0.02 0.03 0.03 0.03 0.02 0.03 0.02 0.01 0.01 0.02 0.04 0.07 0.08 0.11 0.11 0.08 0.05 0.05 0.07 0.07
0.00 0.00 0.00 0.00 0.00 0.01 0.00 0.01 0.03 0.04 0.05 0.03 0.05 0.08 0.09 0.03 0.02 0.01 0.02 0.03 0.04 0.02 0.02 0.02 0.02 0.02 0.02 0.02 0.03 0.04 0.05 0.05 0.04 0.05 0.04 0.03 0.04 0.06 0.16 0.14 0.21 0.20 0.23 0.22 0.20 0.19 0.21 0.23 0.16
0.00 0.00 0.00 0.00 0.00 0.00 0.00 0.00 0.01 0.03 0.06 0.07 0.11 0.15 0.13 0.09 0.09 0.08 0.07 0.11 0.13 0.06 0.04 0.05 0.04 0.04 0.03 0.03 0.04 0.06 0.07 0.13 0.11 0.16 0.23 0.26 0.30 0.25 0.13 0.24 0.45 0.52 0.55 0.52 0.53 0.64 0.61 0.48 0.34
0.00 0.00 0.00 0.00 0.00 0.00 0.00 0.00 0.00 0.01 0.06 0.14 0.27 0.36 0.27 0.16 0.11 0.14 0.17 0.21 0.18 0.10 0.08 0.08 0.07 0.08 0.07 0.06 0.05 0.08 0.14 0.34 0.30 0.28 0.41 0.53 0.47 0.29 0.17 0.22 0.44 0.69 0.72 0.62 0.79 1.03 0.78 0.73 0.79
0.00 0.00 0.00 0.00 0.00 0.00 0.00 0.00 0.00 0.01 0.02 0.12 0.29 0.36 0.34 0.29 0.19 0.15 0.22 0.22 0.18 0.20 0.22 0.21 0.18 0.17 0.16 0.15 0.16 0.16 0.22 0.32 0.34 0.37 0.34 0.54 0.55 0.40 0.34 0.36 0.44 0.67 0.84 1.03 1.09 1.23 1.20 1.17 1.07
0.00 0.00 0.00 0.00 0.00 0.00 0.00 0.00 0.00 0.01 0.01 0.03 0.14 0.21 0.24 0.32 0.45 0.44 0.41 0.40 0.39 0.36 0.40 0.49 0.51 0.47 0.45 0.46 0.43 0.31 0.31 0.29 0.30 0.38 0.39 0.54 0.68 0.64 0.72 0.71 0.67 0.67 0.98 1.30 1.45 1.32 1.49 1.55 1.32
0.00 0.00 0.00 0.00 0.00 0.00 0.00 0.00 0.00 0.02 0.02 0.01 0.05 0.13 0.20 0.26 0.29 0.37 0.48 0.57 0.58 0.56 0.66 0.88 0.94 0.94 1.00 1.01 0.90 0.70 0.62 0.61 0.61 0.65 0.73 0.86 0.97 1.09 1.14 1.09 1.02 0.93 1.03 1.29 1.48 1.48 1.64 1.54 1.46
0.00 0.00 0.00 0.00 0.00 0.00 0.00 0.01 0.01 0.02 0.02 0.03 0.04 0.08 0.14 0.25 0.31 0.33 0.45 0.54 0.62 0.73 0.99 1.32 1.48 1.56 1.63 1.59 1.45 1.23 1.07 1.10 1.20 1.25 1.34 1.36 1.42 1.56 1.51 1.34 1.18 1.20 1.32 1.42 1.42 1.42 1.50 1.34 1.27
0.00 0.00 0.00 0.00 0.00 0.00 0.00 0.03 0.04 0.05 0.07 0.05 0.04 0.05 0.10 0.14 0.19 0.28 0.43 0.59 0.82 1.13 1.49 1.87 2.12 2.29 2.42 2.36 2.12 1.76 1.57 1.55 1.62 1.69 1.67 1.69 1.72 1.74 1.73 1.43 1.18 1.32 1.41 1.40 1.39 1.30 1.35 1.31 1.32
0.00 0.00 0.01 0.02 0.01 0.01 0.01 0.05 0.07 0.07 0.07 0.06 0.05 0.06 0.08 0.12 0.20 0.33 0.53 0.77 1.05 1.44 1.99 2.55 2.97 3.29 3.44 3.09 2.46 2.08 2.01 2.01 2.02 2.01 1.90 1.81 1.71 1.66 1.77 1.49 1.31 1.38 1.35 1.26 1.21 1.35 1.52 1.43 1.40
0.00 0.00 0.01 0.05 0.03 0.04 0.05 0.07 0.10 0.12 0.13 0.14 0.11 0.08 0.12 0.15 0.21 0.38 0.58 0.86 1.18 1.55 2.20 2.94 3.58 3.80 3.64 3.07 2.54 2.40 2.29 2.10 1.95 1.73 1.56 1.44 1.45 1.45 1.53 1.33 1.27 1.39 1.36 1.21 1.26 1.37 1.46 1.28 1.34
0.01 0.02 0.06 0.09 0.05 0.06 0.11 0.14 0.19 0.25 0.25 0.23 0.22 0.19 0.19 0.26 0.38 0.59 0.76 1.04 1.42 1.80 2.37 3.01 3.49 3.55 3.31 2.95 2.56 2.31 1.97 1.75 1.53 1.30 1.13 1.04 1.03 1.08 1.23 1.10 1.18 1.26 1.19 1.10 1.12 1.18 1.20 1.03 1.27
0.02 0.04 0.07 0.08 0.06 0.05 0.12 0.23 0.32 0.30 0.28 0.28 0.23 0.20 0.25 0.37 0.52 0.71 0.98 1.22 1.44 1.82 2.22 2.51 2.41 2.15 2.01 1.95 1.85 1.60 1.58 1.57 1.51 1.41 1.22 1.04 1.04 1.02 0.97 0.96 0.98 1.03 1.05 0.95 0.91 1.02 1.01 0.85 1.08
0.03 0.04 0.06 0.10 0.14 0.09 0.10 0.26 0.46 0.47 0.40 0.29 0.27 0.25 0.27 0.39 0.57 0.80 1.07 1.25 1.29 1.49 1.64 1.58 1.31 1.03 1.00 1.04 1.00 1.14 1.32 1.44 1.49 1.52 1.42 1.26 1.21 1.18 1.12 1.02 0.94 0.90 0.93 0.91 0.88 0.95 0.95 0.82 0.86
0.05 0.04 0.04 0.05 0.08 0.17 0.24 0.43 0.66 0.72 0.68 0.47 0.39 0.40 0.35 0.37 0.46 0.68 0.87 0.89 0.97 1.01 0.89 0.76 0.66 0.57 0.54 0.54 0.58 0.66 0.86 1.16 1.36 1.54 1.59 1.60 1.51 1.36 1.24 1.11 0.94 0.81 0.79 0.81 0.75 0.80 0.89 0.89 0.78
0.03 0.02 0.03 0.04 0.05 0.11 0.25 0.40 0.71 0.88 1.05 0.66 0.44 0.40 0.35 0.38 0.49 0.53 0.51 0.51 0.54 0.53 0.44 0.39 0.41 0.43 0.44 0.45 0.54 0.56 0.54 0.60 0.63 0.71 0.84 1.00 1.13 1.10 0.96 0.89 0.82 0.73 0.67 0.66 0.70 0.80 0.87 0.89 0.80
0.03 0.05 0.07 0.11 0.13 0.22 0.33 0.39 0.65 0.80 0.85 0.54 0.42 0.40 0.29 0.29 0.33 0.34 0.33 0.32 0.31 0.28 0.26 0.32 0.38 0.48 0.49 0.51 0.53 0.52 0.52 0.58 0.58 0.59 0.62 0.62 0.66 0.68 0.66 0.64 0.66 0.65 0.64 0.63 0.63 0.68 0.77 0.85 0.89
0.04 0.06 0.17 0.43 0.59 0.64 0.44 0.46 0.64 0.59 0.57 0.57 0.45 0.35 0.28 0.22 0.18 0.18 0.20 0.21 0.18 0.16 0.14 0.17 0.24 0.32 0.35 0.38 0.43 0.46 0.53 0.56 0.52 0.48 0.45 0.44 0.44 0.47 0.51 0.54 0.59 0.59 0.63 0.69 0.76 0.76 0.76 0.83 0.92
0.04 0.04 0.12 0.24 0.33 0.46 0.39 0.63 0.71 0.53 0.51 0.44 0.32 0.25 0.21 0.12 0.09 0.08 0.08 0.08 0.09 0.09 0.09 0.09 0.10 0.14 0.19 0.26 0.34 0.48 0.66 0.72 0.68 0.66 0.53 0.49 0.48 0.47 0.50 0.57 0.62 0.62 0.64 0.65 0.74 0.78 0.85 0.91 0.94
0.05 0.04 0.05 0.07 0.10 0.22 0.38 0.61 0.58 0.42 0.44 0.36 0.23 0.15 0.11 0.08 0.07 0.04 0.04 0.04 0.04 0.04 0.05 0.06 0.06 0.10 0.17 0.24 0.31 0.37 0.42 0.49 0.50 0.52 0.51 0.48 0.54 0.50 0.55 0.63 0.71 0.74 0.74 0.76 0.79 0.81 0.91 1.07 1.15
0.06 0.04 0.04 0.05 0.08 0.11 0.24 0.53 0.59 0.48 0.47 0.37 0.24 0.14 0.08 0.06 0.04 0.02 0.02 0.02 0.02 0.03 0.05 0.08 0.07 0.14 0.27 0.40 0.46 0.36 0.29 0.27 0.33 0.42 0.49 0.51 0.54 0.55 0.59 0.63 0.66 0.71 0.73 0.76 0.80 0.86 0.96 1.10 1.17
0.07 0.06 0.06 0.06 0.06 0.10 0.16 0.33 0.31 0.30 0.28 0.25 0.18 0.12 0.10 0.07 0.03 0.01 0.01 0.01 0.02 0.03 0.07 0.18 0.24 0.31 0.43 0.58 0.66 0.55 0.38 0.31 0.31 0.35 0.34 0.36 0.44 0.54 0.61 0.58 0.52 0.49 0.55 0.66 0.80 0.88 0.96 1.04 1.08
0.08 0.07 0.07 0.08 0.07 0.07 0.10 0.22 0.14 0.13 0.12 0.10 0.07 0.06 0.04 0.02 0.01 0.01 0.01 0.01 0.01 0.03 0.14 0.38 0.63 0.89 0.95 1.03 1.11 0.96 0.58 0.36 0.29 0.24 0.23 0.29 0.41 0.52 0.57 0.54 0.49 0.47 0.54 0.66 0.80 0.96 1.16 1.28 1.24

GEFSSGP_prec_meanprecacc_072.txt.gz
Total_Precipitation_Accumulation
0.00 0.01 0.06 0.12 0.16 0.23 0.22 0.12 0.10 0.05 0.03 0.02 0.02 0.01 0.01 0.01 0.01 0.03 0.00 0.00 0.00 0.00 0.00 0.01 0.01 0.00 0.00 0.01 0.01 0.00 0.00 0.00 0.01 0.01 0.01 0.01 0.01 0.01 0.01 0.01 0.01 0.01 0.01 0.01 0.01 0.01 0.01 0.01 0.01
0.00 0.01 0.07 0.12 0.19 0.42 0.23 0.08 0.05 0.03 0.02 0.03 0.02 0.01 0.01 0.00 0.00 0.00 0.00 0.00 0.00 0.00 0.00 0.00 0.01 0.00 0.00 0.01 0.01 0.01 0.01 0.01 0.01 0.01 0.01 0.01 0.01 0.01 0.01 0.01 0.01 0.01 0.01 0.01 0.01 0.01 0.01 0.01 0.01
0.00 0.01 0.06 0.10 0.22 0.43 0.12 0.04 0.03 0.03 0.02 0.04 0.03 0.01 0.00 0.00 0.00 0.00 0.00 0.00 0.00 0.00 0.00 0.00 0.01 0.00 0.00 0.01 0.01 0.01 0.01 0.01 0.01 0.01 0.01 0.02 0.02 0.02 0.02 0.02 0.01 0.01 0.02 0.01 0.01 0.01 0.01 0.01 0.01
0.00 0.00 0.02 0.06 0.16 0.26 0.12 0.05 0.04 0.04 0.03 0.02 0.02 0.01 0.00 0.00 0.00 0.00 0.00 0.00 0.00 0.00 0.00 0.01 0.01 0.00 0.01 0.01 0.01 0.01 0.01 0.02 0.02 0.01 0.02 0.02 0.04 0.04 0.03 0.02 0.02 0.02 0.02 0.02 0.02 0.01 0.01 0.01 0.01
0.00 0.00 0.01 0.03 0.08 0.12 0.10 0.08 0.07 0.05 0.02 0.02 0.02 0.01 0.00 0.00 0.00 0.00 0.00 0.00 0.00 0.00 0.00 0.01 0.01 0.01 0.00 0.01 0.01 0.01 0.02 0.02 0.02 0.02 0.02 0.02 0.03 0.03 0.03 0.02 0.02 0.03 0.02 0.02 0.03 0.03 0.02 0.01 0.01
0.00 0.00 0.01 0.02 0.03 0.05 0.08 0.09 0.08 0.05 0.03 0.02 0.02 0.02 0.01 0.00 0.00 0.00 0.00 0.00 0.00 0.00 0.00 0.01 0.01 0.01 0.01 0.01 0.01 0.01 0.02 0.02 0.02 0.02 0.02 0.02 0.02 0.02 0.02 0.02 0.02 0.03 0.04 0.03 0.03 0.03 0.02 0.02 0.02
0.00 0.00 0.00 0.01 0.02 0.05 0.04 0.05 0.07 0.04 0.03 0.03 0.03 0.03 0.04 0.01 0.01 0.01 0.01 0.00 0.00 0.00 0.01 0.02 0.02 0.02 0.02 0.01 0.01 0.02 0.03 0.03 0.03 0.03 0.03 0.02 0.02 0.03 0.03 0.03 0.04 0.05 0.06 0.07 0.04 0.03 0.03 0.03 0.03
0.00 0.00 0.00 0.00 0.01 0.03 0.02 0.03 0.05 0.06 0.03 0.02 0.03 0.06 0.08 0.05 0.02 0.01 0.02 0.02 0.01 0.02 0.02 0.02 0.03 0.03 0.02 0.02 0.03 0.04 0.04 0.04 0.04 0.04 0.04 0.03 0.02 0.03 0.04 0.05 0.09 0.11 0.14 0.14 0.11 0.07 0.07 0.09 0.09
0.00 0.00 0.00 0.00 0.00 0.01 0.01 0.02 0.04 0.05 0.05 0.04 0.05 0.08 0.10 0.04 0.02 0.02 0.04 0.05 0.06 0.05 0.04 0.04 0.04 0.04 0.04 0.04 0.04 0.06 0.06 0.06 0.05 0.06 0.06 0.06 0.06 0.08 0.18 0.17 0.25 0.24 0.29 0.27 0.25 0.24 0.25 0.28 0.20
0.00 0.00 0.00 0.00 0.00 0.00 0.00 0.01 0.02 0.04 0.08 0.09 0.12 0.16 0.14 0.09 0.10 0.11 0.11 0.16 0.20 0.11 0.07 0.07 0.06 0.07 0.07 0.06 0.06 0.07 0.09 0.16 0.13 0.19 0.27 0.29 0.33 0.28 0.16 0.27 0.50 0.59 0.63 0.62 0.63 0.74 0.73 0.60 0.43
0.00 0.00 0.00 0.00 0.00 0.00 0.00 0.01 0.01 0.02 0.08 0.15 0.28 0.37 0.28 0.18 0.12 0.17 0.25 0.33 0.29 0.19 0.15 0.13 0.12 0.14 0.13 0.11 0.11 0.14 0.21 0.41 0.35 0.31 0.44 0.57 0.51 0.33 0.20 0.24 0.49 0.76 0.83 0.75 0.94 1.21 0.94 0.87 0.91
0.00 0.00 0.00 0.00 0.00 0.00 0.00 0.00 0.01 0.02 0.04 0.13 0.30 0.37 0.35 0.33 0.22 0.19 0.31 0.32 0.30 0.37 0.40 0.36 0.33 0.31 0.34 0.33 0.29 0.25 0.30 0.40 0.40 0.42 0.40 0.61 0.63 0.47 0.40 0.42 0.51 0.75 0.93 1.15 1.21 1.38 1.36 1.34 1.23
0.00 0.00 0.00 0.00 0.00 0.00 0.00 0.00 0.01 0.03 0.03 0.05 0.16 0.23 0.27 0.37 0.50 0.49 0.47 0.49 0.53 0.50 0.53 0.65 0.72 0.73 0.74 0.67 0.58 0.44 0.43 0.42 0.42 0.51 0.52 0.67 0.82 0.79 0.86 0.84 0.78 0.77 1.09 1.43 1.61 1.47 1.67 1.74 1.50
0.00 0.00 0.00 0.00 0.00 0.00 0.00 0.01 0.02 0.05 0.05 0.05 0.09 0.18 0.27 0.33 0.35 0.43 0.58 0.70 0.72 0.69 0.81 1.08 1.22 1.23 1.24 1.25 1.15 0.95 0.88 0.85 0.82 0.86 0.96 1.08 1.17 1.30 1.36 1.28 1.18 1.06 1.15 1.41 1.61 1.62 1.81 1.70 1.61
0.00 0.00 0.00 0.00 0.01 0.00 0.01 0.02 0.04 0.06 0.07 0.08 0.08 0.12 0.21 0.31 0.37 0.41 0.55 0.65 0.78 0.92 1.23 1.55 1.76 1.86 1.91 1.90 1.77 1.57 1.42 1.42 1.50 1.53 1.62 1.62 1.65 1.79 1.74 1.56 1.36 1.31 1.41 1.50 1.51 1.53 1.62 1.45 1.36
0.00 0.00 0.00 0.00 0.01 0.01 0.01 0.06 0.08 0.10 0.12 0.12 0.11 0.13 0.17 0.23 0.30 0.38 0.53 0.70 0.99 1.33 1.73 2.10 2.35 2.54 2.67 2.63 2.41 2.05 1.86 1.84 1.90 1.94 1.90 1.93 1.93 1.91 1.90 1.61 1.31 1.41 1.51 1.49 1.47 1.37 1.43 1.38 1.39
0.00 0.00 0.01 0.02 0.01 0.02 0.03 0.07 0.12 0.15 0.16 0.13 0.12 0.13 0.15 0.20 0.30 0.43 0.63 0.87 1.17 1.58 2.15 2.69 3.12 3.45 3.60 3.27 2.66 2.27 2.19 2.16 2.16 2.13 2.00 1.91 1.82 1.77 1.88 1.59 1.41 1.46 1.42 1.34 1.29 1.41 1.57 1.49 1.46
0.00 0.00 0.02 0.05 0.04 0.05 0.06 0.10 0.15 0.21 0.24 0.23 0.20 0.19 0.21 0.26 0.33 0.50 0.68 0.94 1.26 1.62 2.28 3.01 3.66 3.89 3.75 3.16 2.62 2.48 2.37 2.18 2.02 1.80 1.61 1.49 1.50 1.50 1.58 1.39 1.31 1.42 1.39 1.24 1.29 1.40 1.49 1.31 1.36
0.01 0.02 0.06 0.10 0.06 0.07 0.13 0.17 0.24 0.32 0.35 0.36 0.36 0.36 0.33 0.38 0.51 0.73 0.89 1.12 1.49 1.85 2.41 3.05 3.54 3.60 3.36 2.99 2.60 2.35 2.02 1.80 1.58 1.34 1.16 1.06 1.05 1.11 1.26 1.13 1.20 1.28 1.20 1.11 1.13 1.19 1.21 1.04 1.29
0.03 0.04 0.08 0.09 0.07 0.06 0.13 0.25 0.37 0.35 0.35 0.39 0.38 0.36 0.39 0.50 0.66 0.83 1.08 1.29 1.49 1.85 2.25 2.53 2.43 2.17 2.03 1.97 1.87 1.62 1.59 1.59 1.52 1.43 1.23 1.04 1.05 1.03 0.98 0.97 0.98 1.03 1.06 0.96 0.92 1.03 1.01 0.85 1.10
0.03 0.05 0.07 0.11 0.16 0.12 0.12 0.29 0.50 0.52 0.45 0.38 0.37 0.35 0.35 0.44 0.61 0.84 1.13 1.29 1.31 1.50 1.65 1.58 1.31 1.04 1.01 1.05 1.00 1.14 1.32 1.45 1.49 1.52 1.42 1.26 1.21 1.18 1.12 1.03 0.94 0.91 0.94 0.92 0.88 0.96 0.95 0.83 0.87
0.06 0.04 0.05 0.06 0.10 0.19 0.26 0.45 0.69 0.76 0.73 0.52 0.44 0.45 0.40 0.41 0.48 0.69 0.88 0.91 0.97 1.02 0.89 0.76 0.67 0.57 0.54 0.54 0.58 0.66 0.86 1.16 1.36 1.54 1.59 1.60 1.52 1.37 1.24 1.11 0.94 0.81 0.79 0.82 0.75 0.80 0.89 0.89 0.79
0.04 0.03 0.03 0.05 0.07 0.12 0.25 0.41 0.73 0.90 1.06 0.67 0.46 0.43 0.38 0.41 0.52 0.54 0.52 0.52 0.54 0.53 0.45 0.39 0.41 0.43 0.44 0.46 0.54 0.56 0.54 0.61 0.63 0.71 0.84 1.00 1.13 1.10 0.96 0.89 0.83 0.73 0.67 0.67 0.70 0.80 0.87 0.89 0.80
0.04 0.06 0.08 0.12 0.14 0.22 0.33 0.39 0.66 0.80 0.85 0.54 0.42 0.41 0.31 0.31 0.34 0.35 0.34 0.33 0.31 0.28 0.26 0.32 0.39 0.48 0.50 0.52 0.54 0.52 0.52 0.58 0.58 0.59 0.62 0.62 0.66 0.68 0.66 0.64 0.66 0.65 0.64 0.63 0.63 0.69 0.77 0.85 0.89
0.05 0.07 0.18 0.43 0.59 0.64 0.45 0.46 0.64 0.59 0.57 0.57 0.45 0.36 0.28 0.22 0.18 0.18 0.20 0.22 0.18 0.16 0.14 0.17 0.24 0.33 0.35 0.38 0.43 0.46 0.53 0.56 0.52 0.48 0.45 0.44 0.44 0.47 0.51 0.54 0.59 0.59 0.63 0.69 0.76 0.76 0.76 0.83 0.93
0.05 0.05 0.13 0.25 0.33 0.46 0.39 0.63 0.71 0.53 0.51 0.44 0.32 0.25 0.21 0.12 0.09 0.08 0.08 0.09 0.09 0.09 0.09 0.09 0.10 0.14 0.20 0.26 0.34 0.48 0.66 0.72 0.68 0.66 0.53 0.49 0.48 0.47 0.50 0.57 0.63 0.62 0.64 0.65 0.74 0.78 0.85 0.91 0.94
0.06 0.05 0.06 0.08 0.10 0.22 0.38 0.61 0.58 0.42 0.44 0.36 0.23 0.15 0.11 0.08 0.07 0.04 0.04 0.04 0.04 0.04 0.05 0.06 0.06 0.10 0.17 0.24 0.31 0.37 0.42 0.49 0.50 0.52 0.51 0.48 0.54 0.50 0.55 0.63 0.71 0.74 0.74 0.76 0.80 0.81 0.91 1.08 1.15
0.06 0.05 0.04 0.05 0.08 0.11 0.24 0.53 0.59 0.48 0.47 0.37 0.24 0.14 0.08 0.06 0.04 0.02 0.02 0.02 0.02 0.03 0.05 0.08 0.07 0.14 0.27 0.40 0.46 0.36 0.29 0.27 0.33 0.42 0.49 0.51 0.54 0.55 0.59 0.63 0.66 0.71 0.73 0.76 0.80 0.86 0.96 1.10 1.17
0.07 0.06 0.06 0.06 0.06 0.10 0.16 0.33 0.31 0.30 0.28 0.25 0.18 0.12 0.10 0.07 0.03 0.01 0.01 0.01 0.02 0.03 0.07 0.18 0.24 0.31 0.43 0.58 0.66 0.55 0.38 0.31 0.31 0.35 0.34 0.36 0.44 0.54 0.61 0.58 0.52 0.49 0.55 0.66 0.80 0.88 0.96 1.05 1.08
0.08 0.07 0.07 0.08 0.07 0.07 0.10 0.22 0.14 0.13 0.12 0.10 0.07 0.06 0.04 0.02 0.01 0.01 0.01 0.01 0.01 0.03 0.14 0.38 0.63 0.89 0.95 1.03 1.11 0.96 0.58 0.36 0.29 0.24 0.23 0.29 0.41 0.52 0.57 0.54 0.49 0.47 0.54 0.66 0.80 0.96 1.16 1.28 1.24

GEFSSGP_prec_meanprecacc_078.txt.gz
Total_Precipitation_Accumulation
0.00 0.01 0.06 0.12 0.16 0.23 0.22 0.12 0.11 0.06 0.03 0.03 0.02 0.02 0.01 0.01 0.01 0.04 0.01 0.00 0.00 0.00 0.00 0.01 0.01 0.01 0.01 0.02 0.02 0.02 0.01 0.01 0.01 0.01 0.01 0.01 0.01 0.01 0.01 0.01 0.01 0.01 0.01 0.01 0.01 0.01 0.01 0.01 0.01
0.00 0.01 0.07 0.12 0.19 0.43 0.23 0.08 0.05 0.04 0.02 0.03 0.02 0.01 0.01 0.00 0.00 0.00 0.00 0.00 0.00 0.00 0.00 0.01 0.01 0.01 0.01 0.01 0.02 0.02 0.02 0.02 0.02 0.02 0.01 0.02 0.02 0.01 0.01 0.01 0.01 0.01 0.02 0.02 0.01 0.01 0.01 0.01 0.01
0.00 0.01 0.06 0.10 0.22 0.43 0.12 0.04 0.03 0.04 0.03 0.04 0.03 0.01 0.01 0.00 0.00 0.00 0.00 0.00 0.00 0.00 0.00 0.01 0.01 0.01 0.01 0.01 0.02 0.02 0.02 0.02 0.02 0.02 0.02 0.02 0.03 0.03 0.02 0.02 0.02 0.02 0.02 0.02 0.02 0.01 0.01 0.01 0.01
0.00 0.00 0.02 0.06 0.16 0.26 0.12 0.05 0.04 0.04 0.03 0.03 0.02 0.01 0.00 0.00 0.00 0.00 0.00 0.00 0.00 0.00 0.00 0.01 0.01 0.01 0.01 0.01 0.01 0.02 0.02 0.02 0.02 0.02 0.02 0.03 0.04 0.04 0.03 0.02 0.02 0.02 0.02 0.03 0.03 0.02 0.01 0.01 0.01
0.00 0.00 0.01 0.03 0.08 0.12 0.10 0.08 0.07 0.05 0.02 0.02 0.02 0.02 0.00 0.00 0.00 0.00 0.00 0.00 0.00 0.00 0.00 0.01 0.02 0.01 0.01 0.01 0.01 0.01 0.02 0.02 0.02 0.02 0.02 0.03 0.03 0.03 0.03 0.03 0.03 0.03 0.03 0.03 0.04 0.03 0.03 0.02 0.01
0.00 0.00 0.01 0.02 0.03 0.05 0.08 0.09 0.08 0.05 0.03 0.02 0.03 0.02 0.01 0.00 0.00 0.00 0.00 0.00 0.00 0.00 0.01 0.02 0.03 0.02 0.02 0.02 0.02 0.02 0.03 0.03 0.03 0.03 0.03 0.03 0.04 0.04 0.04 0.03 0.03 0.04 0.05 0.04 0.04 0.04 0.04 0.03 0.02
0.00 0.00 0.01 0.01 0.02 0.05 0.04 0.05 0.07 0.05 0.03 0.03 0.03 0.04 0.04 0.02 0.01 0.01 0.01 0.01 0.00 0.01 0.01 0.03 0.04 0.04 0.03 0.03 0.04 0.04 0.05 0.06 0.06 0.05 0.05 0.05 0.05 0.05 0.05 0.05 0.06 0.07 0.09 0.09 0.06 0.05 0.06 0.06 0.05
0.00 0.00 0.00 0.00 0.01 0.03 0.02 0.03 0.06 0.06 0.04 0.02 0.03 0.06 0.08 0.06 0.02 0.01 0.02 0.02 0.02 0.02 0.02 0.04 0.06 0.06 0.06 0.05 0.05 0.07 0.08 0.08 0.08 0.07 0.07 0.06 0.06 0.06 0.07 0.08 0.12 0.15 0.19 0.19 0.15 0.11 0.11 0.13 0.12
0.00 0.00 0.00 0.00 0.00 0.01 0.01 0.02 0.04 0.05 0.06 0.04 0.06 0.08 0.10 0.04 0.03 0.03 0.04 0.05 0.06 0.05 0.05 0.06 0.06 0.06 0.06 0.06 0.07 0.10 0.10 0.11 0.11 0.12 0.11 0.12 0.12 0.14 0.24 0.21 0.30 0.29 0.35 0.36 0.35 0.32 0.33 0.36 0.27
0.00 0.00 0.00 0.00 0.00 0.00 0.00 0.01 0.03 0.05 0.08 0.09 0.12 0.16 0.14 0.10 0.12 0.12 0.11 0.17 0.21 0.12 0.08 0.08 0.08 0.09 0.10 0.09 0.10 0.14 0.17 0.26 0.25 0.31 0.37 0.40 0.44 0.37 0.24 0.35 0.58 0.66 0.72 0.73 0.75 0.86 0.82 0.67 0.51
0.00 0.00 0.00 0.00 0.00 0.00 0.00 0.01 0.01 0.02 0.08 0.16 0.28 0.37 0.28 0.19 0.14 0.19 0.26 0.34 0.31 0.20 0.16 0.15 0.15 0.18 0.17 0.16 0.16 0.22 0.29 0.53 0.49 0.44 0.56 0.71 0.64 0.44 0.31 0.37 0.61 0.89 0.95 0.89 1.10 1.36 1.07 0.98 1.02
0.00 0.00 0.00 0.00 0.00 0.00 0.00 0.01 0.01 0.02 0.04 0.13 0.30 0.37 0.36 0.35 0.24 0.20 0.32 0.33 0.32 0.40 0.44 0.41 0.40 0.37 0.41 0.42 0.37 0.31 0.38 0.50 0.54 0.58 0.54 0.76 0.77 0.63 0.55 0.59 0.66 0.89 1.09 1.33 1.41 1.57 1.54 1.51 1.39
0.00 0.00 0.00 0.00 0.00 0.00 0.00 0.01 0.01 0.03 0.03 0.05 0.16 0.24 0.28 0.39 0.51 0.50 0.49 0.51 0.56 0.53 0.57 0.70 0.78 0.78 0.82 0.74 0.64 0.51 0.53 0.54 0.58 0.72 0.74 0.84 0.99 0.99 1.06 1.04 0.95 0.93 1.24 1.60 1.79 1.66 1.86 1.93 1.68
0.00 0.00 0.00 0.00 0.00 0.01 0.01 0.01 0.02 0.06 0.06 0.06 0.10 0.20 0.29 0.36 0.37 0.46 0.61 0.73 0.75 0.73 0.85 1.14 1.25 1.26 1.29 1.30 1.23 1.06 1.00 0.99 0.98 1.04 1.18 1.29 1.39 1.53 1.56 1.48 1.37 1.22 1.28 1.55 1.77 1.80 1.99 1.88 1.80
0.00 0.00 0.00 0.00 0.01 0.01 0.02 0.04 0.05 0.07 0.09 0.09 0.09 0.14 0.24 0.36 0.41 0.46 0.62 0.74 0.88 1.00 1.32 1.64 1.82 1.93 1.97 1.99 1.88 1.67 1.52 1.56 1.67 1.74 1.84 1.83 1.83 1.98 1.92 1.73 1.52 1.47 1.55 1.62 1.62 1.64 1.76 1.61 1.52
0.00 0.00 0.00 0.01 0.01 0.02 0.03 0.08 0.10 0.12 0.15 0.14 0.12 0.15 0.20 0.26 0.34 0.46 0.62 0.83 1.12 1.46 1.87 2.19 2.42 2.62 2.76 2.74 2.49 2.13 1.96 1.97 2.02 2.06 2.03 2.07 2.09 2.05 2.01 1.71 1.44 1.53 1.64 1.60 1.56 1.46 1.54 1.50 1.50
0.00 0.00 0.01 0.03 0.02 0.02 0.04 0.11 0.15 0.17 0.19 0.17 0.15 0.16 0.18 0.22 0.32 0.47 0.69 0.97 1.26 1.66 2.23 2.76 3.18 3.52 3.68 3.35 2.73 2.36 2.30 2.28 2.24 2.23 2.11 2.02 1.93 1.89 2.00 1.70 1.54 1.59 1.54 1.42 1.36 1.48 1.65 1.57 1.54
0.00 0.01 0.02 0.06 0.05 0.05 0.08 0.14 0.19 0.25 0.28 0.28 0.25 0.22 0.23 0.28 0.36 0.53 0.70 0.98 1.33 1.71 2.36 3.10 3.76 3.99 3.81 3.22 2.68 2.53 2.42 2.24 2.08 1.86 1.68 1.57 1.60 1.60 1.69 1.49 1.42 1.53 1.48 1.31 1.35 1.47 1.56 1.37 1.43
0.01 0.03 0.07 0.11 0.06 0.08 0.14 0.20 0.28 0.37 0.40 0.42 0.42 0.40 0.37 0.42 0.55 0.77 0.93 1.16 1.53 1.95 2.53 3.14 3.62 3.67 3.42 3.05 2.66 2.39 2.06 1.83 1.61 1.37 1.19 1.11 1.10 1.17 1.32 1.18 1.25 1.32 1.24 1.16 1.17 1.23 1.25 1.08 1.33
0.03 0.05 0.09 0.10 0.07 0.07 0.15 0.27 0.40 0.40 0.40 0.43 0.43 0.41 0.44 0.54 0.70 0.86 1.11 1.32 1.52 1.91 2.32 2.61 2.53 2.29 2.12 2.03 1.90 1.64 1.61 1.60 1.54 1.45 1.25 1.05 1.06 1.05 1.00 0.99 1.00 1.05 1.08 0.99 0.95 1.06 1.04 0.88 1.13
0.04 0.05 0.08 0.12 0.17 0.13 0.14 0.32 0.54 0.57 0.49 0.41 0.41 0.38 0.37 0.47 0.64 0.86 1.14 1.31 1.34 1.54 1.69 1.61 1.36 1.10 1.06 1.08 1.02 1.15 1.34 1.46 1.50 1.53 1.44 1.28 1.22 1.18 1.12 1.03 0.95 0.91 0.95 0.93 0.90 0.98 0.98 0.86 0.90
0.06 0.04 0.05 0.07 0.12 0.22 0.28 0.50 0.73 0.80 0.76 0.55 0.46 0.47 0.41 0.42 0.50 0.70 0.89 0.92 0.99 1.03 0.91 0.79 0.69 0.59 0.56 0.56 0.61 0.68 0.88 1.17 1.38 1.55 1.60 1.61 1.52 1.37 1.24 1.11 0.94 0.81 0.79 0.83 0.77 0.82 0.92 0.92 0.82
0.04 0.03 0.04 0.06 0.08 0.14 0.27 0.44 0.75 0.93 1.10 0.68 0.46 0.44 0.39 0.42 0.52 0.54 0.52 0.52 0.55 0.54 0.46 0.41 0.43 0.45 0.46 0.47 0.56 0.59 0.56 0.62 0.64 0.72 0.85 1.02 1.14 1.10 0.96 0.89 0.83 0.74 0.68 0.67 0.71 0.81 0.89 0.91 0.83
0.04 0.07 0.08 0.13 0.14 0.24 0.34 0.40 0.67 0.81 0.86 0.55 0.42 0.41 0.31 0.31 0.34 0.35 0.34 0.33 0.31 0.29 0.26 0.33 0.40 0.50 0.51 0.52 0.55 0.55 0.54 0.60 0.60 0.60 0.63 0.63 0.66 0.68 0.66 0.65 0.67 0.66 0.65 0.64 0.64 0.70 0.79 0.87 0.91
0.05 0.07 0.19 0.45 0.62 0.66 0.45 0.46 0.64 0.59 0.57 0.57 0.46 0.36 0.28 0.22 0.18 0.19 0.20 0.22 0.18 0.17 0.15 0.17 0.25 0.34 0.36 0.39 0.44 0.47 0.54 0.57 0.53 0.48 0.46 0.45 0.45 0.47 0.51 0.55 0.59 0.60 0.64 0.70 0.77 0.77 0.77 0.85 0.95
0.05 0.06 0.15 0.27 0.35 0.47 0.40 0.63 0.71 0.53 0.51 0.44 0.32 0.25 0.21 0.13 0.09 0.08 0.08 0.09 0.09 0.09 0.10 0.10 0.11 0.15 0.20 0.26 0.35 0.49 0.66 0.72 0.68 0.66 0.53 0.49 0.48 0.47 0.50 0.58 0.63 0.63 0.65 0.66 0.76 0.80 0.86 0.93 0.96
0.06 0.05 0.06 0.08 0.10 0.23 0.38 0.61 0.58 0.42 0.44 0.36 0.23 0.15 0.11 0.08 0.07 0.04 0.04 0.04 0.04 0.05 0.05 0.06 0.07 0.10 0.18 0.25 0.32 0.37 0.42 0.50 0.51 0.52 0.51 0.48 0.54 0.50 0.55 0.63 0.71 0.74 0.75 0.77 0.81 0.82 0.92 1.09 1.16
0.06 0.05 0.04 0.05 0.08 0.12 0.25 0.53 0.59 0.48 0.47 0.37 0.24 0.14 0.08 0.06 0.04 0.02 0.02 0.02 0.02 0.03 0.05 0.08 0.07 0.14 0.28 0.40 0.46 0.36 0.29 0.27 0.34 0.43 0.49 0.51 0.54 0.55 0.59 0.64 0.67 0.72 0.74 0.77 0.81 0.87 0.97 1.12 1.19
0.07 0.06 0.06 0.06 0.06 0.10 0.16 0.33 0.31 0.30 0.28 0.25 0.18 0.12 0.10 0.07 0.03 0.01 0.01 0.01 0.02 0.03 0.07 0.18 0.24 0.31 0.43 0.58 0.66 0.55 0.38 0.31 0.32 0.35 0.34 0.37 0.45 0.55 0.61 0.58 0.52 0.50 0.55 0.67 0.82 0.89 0.98 1.06 1.10
0.08 0.08 0.07 0.08 0.07 0.07 0.10 0.22 0.14 0.13 0.12 0.10 0.07 0.06 0.04 0.02 0.01 0.01 0.01 0.01 0.01 0.03 0.14 0.38 0.63 0.89 0.95 1.03 1.11 0.96 0.58 0.36 0.29 0.24 0.23 0.30 0.42 0.52 0.57 0.54 0.49 0.48 0.54 0.67 0.81 0.97 1.17 1.29 1.25